Regional Weather Roundup
Issued by NWS Sioux Falls, SD

Home | Current Version | Previous Version | Text Only | Print | Product List | Glossary On
Versions: 1 2 3 4 5 6 7 8 9 10 11 12 13 14 15 16 17 18 19 20 21 22 23 24 25 26 27 28 29 30 31 32 33 34 35 36 37 38 39 40 41 42 43 44 45 46 47 48 49 50
000
ASUS43 KFSD 052210
RWRFSD

WEATHER ROUNDUP FOR SE SOUTH DAKOTA/SW MINNESOTA/NW IOWA
NATIONAL WEATHER SERVICE SIOUX FALLS SD
500 PM CDT THU MAY 05 2016

NOTE: "FAIR" INDICATES FEW OR NO CLOUDS BELOW 12,000 FEET WITH NO
SIGNIFICANT WEATHER AND OR OBSTRUCTIONS TO VISIBILITY.


SDZ038>040-050-052>070-052300-
SOUTHEAST SOUTH DAKOTA

CITY           SKY/WX    TMP DP  RH WIND       PRES   REMARKS
BROOKINGS      SUNNY     81  44  27 S14       29.93F
CHAMBERLAIN    SUNNY     84  51  31 S15G21    29.89F
HURON          SUNNY     83  40  21 S16G24    29.88F
MADISON        FAIR      79  41  25 SW14      29.95F
MITCHELL       SUNNY     83  42  23 S12G18    29.91F
SIOUX FALLS    MOSUNNY   76  50  40 S10       29.96F
WINNER         LGT RAIN  86  46  24 S15G22    29.89F
YANKTON        SUNNY     81  43  26 SW8       29.93F
$$

MNZ071-072-080-081-089-090-097-098-052300-
SOUTHWEST MINNESOTA

CITY           SKY/WX    TMP DP  RH WIND       PRES   REMARKS
FAIRMONT       SUNNY     75  36  23 SW7       29.98F
JACKSON        SUNNY     77  30  18 W9G16     29.98F
LUVERNE        SUNNY     77  36  22 SW10      29.97F
MARSHALL       SUNNY     82  43  25 SW8G17    29.93F
MONTEVIDEO     SUNNY     86  43  22 W9G17     29.91F
PIPESTONE      SUNNY     77  39  25 SW12G20   29.97F
REDWOOD FALLS  SUNNY     82  38  20 SW12      29.92F
TRACY          SUNNY     81  43  26 SW12      29.95F
WINDOM         SUNNY     79  37  22 SW3G16    29.97F
WORTHINGTON    SUNNY     77  39  25 SW10      29.98F
$$

IAZ001>003-012>014-020>022-031-032-NEZ013-014-SDZ071-052300-
NORTHWEST IOWA

CITY           SKY/WX    TMP DP  RH WIND       PRES   REMARKS
CHEROKEE       SUNNY     75  40  29 SW9       29.99F
DENISON        SUNNY     75  37  25 S6        29.99F
ESTHERVILLE    SUNNY     75  40  28 W10       29.98F HAZE
LE MARS        SUNNY     77  41  27 S6G14     29.99F
ORANGE CITY    SUNNY     77  43  29 S8        29.99F
SHELDON        SUNNY     77  37  24 SW8       29.97F
SIOUX CITY     SUNNY     78  48  34 SE14      29.98F
SPENCER        SUNNY     77  37  23 SW9       29.99F
STORM LAKE     SUNNY     75  34  22 SW6G16    30.01F
$$

ABBREVIATIONS USED IN REMARKS
   TC - TEMPERATURE IN CELSIUS
  WCI - WIND CHILL INDEX
   HX - HEAT INDEX
  VSB - VISIBILITY




USA.gov is the U.S. government's official web portal to all federal, state and local government web resources and services.